TimePST,TemperatureF,Dew PointF,Humidity,Sea Level PressureIn,VisibilityMPH,Wind Direction,Wind SpeedMPH,Gust SpeedMPH,PrecipitationIn,Events,Conditions,WindDirDegrees,DateUTC
12:52 AM,30.0,19.9,66,30.35,10.0,Calm,Calm,-,N/A,,Clear,0,2012-12-20 08:52:00
1:52 AM,27.0,18.0,69,30.36,10.0,NNE,3.5,-,N/A,,Clear,20,2012-12-20 09:52:00
2:52 AM,30.0,19.0,64,30.35,10.0,NNW,3.5,-,N/A,,Clear,340,2012-12-20 10:52:00
3:52 AM,27.0,19.9,75,30.35,10.0,WNW,4.6,-,N/A,,Clear,300,2012-12-20 11:52:00
4:52 AM,28.0,19.9,72,30.35,10.0,NNW,3.5,-,N/A,,Clear,340,2012-12-20 12:52:00
5:52 AM,24.1,18.0,77,30.35,-9999.0,North,3.5,-,N/A,,Clear,360,2012-12-20 13:52:00
6:52 AM,28.9,19.9,69,30.35,10.0,NNW,4.6,-,N/A,,Clear,340,2012-12-20 14:52:00
7:52 AM,37.0,19.0,48,30.37,10.0,North,4.6,-,N/A,,Clear,360,2012-12-20 15:52:00
8:52 AM,45.0,19.0,36,30.38,10.0,NNW,4.6,-,N/A,,Clear,330,2012-12-20 16:52:00
9:52 AM,52.0,19.0,27,30.36,10.0,NW,5.8,-,N/A,,Clear,320,2012-12-20 17:52:00
10:52 AM,55.9,12.9,18,30.33,10.0,Variable,3.5,-,N/A,,Clear,0,2012-12-20 18:52:00
11:52 AM,59.0,12.9,16,30.29,10.0,Variable,3.5,-,N/A,,Clear,0,2012-12-20 19:52:00
12:52 PM,60.1,14.0,16,30.26,10.0,South,4.6,-,N/A,,Clear,170,2012-12-20 20:52:00
1:52 PM,61.0,12.9,15,30.22,10.0,Calm,Calm,-,N/A,,Clear,0,2012-12-20 21:52:00
2:52 PM,60.1,14.0,16,30.21,10.0,Calm,Calm,-,N/A,,Clear,0,2012-12-20 22:52:00
3:52 PM,59.0,15.1,18,30.19,10.0,West,3.5,-,N/A,,Clear,270,2012-12-20 23:52:00
4:52 PM,48.9,21.9,35,30.18,7.0,Calm,Calm,-,N/A,,Clear,0,2012-12-21 00:52:00
5:52 PM,43.0,23.0,45,30.18,10.0,Calm,Calm,-,N/A,,Clear,0,2012-12-21 01:52:00
6:52 PM,37.9,24.1,57,30.19,10.0,Calm,Calm,-,N/A,,Clear,0,2012-12-21 02:52:00
7:52 PM,36.0,24.1,62,30.19,10.0,Calm,Calm,-,N/A,,Clear,0,2012-12-21 03:52:00
8:52 PM,37.9,24.1,57,30.20,10.0,North,3.5,-,N/A,,Clear,10,2012-12-21 04:52:00
9:52 PM,34.0,23.0,64,30.21,10.0,North,3.5,-,N/A,,Clear,350,2012-12-21 05:52:00
10:52 PM,37.0,23.0,57,30.19,10.0,North,4.6,-,N/A,,Clear,350,2012-12-21 06:52:00
11:52 PM,35.1,23.0,61,30.18,10.0,North,4.6,-,N/A,,Clear,360,2012-12-21 07:52:00